Weather History for KMTH - November, 2014

Change the Weather History Date:

Saturday, November 1, 2014

  Actual Average Record
Temperature  
Mean Temperature 72 °F 78 °F  
Max Temperature 81 °F 83 °F 90 °F (2002)
Min Temperature 63 °F 73 °F 61 °F (2012)
Degree Days  
Heating Degree Days 0 0  
Month to date heating degree days 0 0  
Since 1 July heating degree days 0 0  
Cooling Degree Days 7 13  
Month to date cooling degree days 7 13  
Year to date cooling degree days 4743 4452  
Growing Degree Days 23 (Base 50)    
Moisture  
Dew Point 59 °F    
Average Humidity 59    
Maximum Humidity 73    
Minimum Humidity 45    
Precipitation  
Precipitation T in 0.16 in 0.24 in (1999)
Month to date precipitation T 0.16  
Year to date precipitation 33.03 41.49  
Snow  
Snow 0.00 in - - ()
Month to date snowfall 0.0  
Since 1 July snowfall 0.0  
Since 1 September snowfall 0.0  
Snow Depth 0.00 in    
Sea Level Pressure  
Sea Level Pressure 30.01 in    
Wind  
Wind Speed 14 mph (NW)    
Max Wind Speed 21 mph    
Max Gust Speed 31 mph    
Visibility 10 miles    
Events      
T = Trace of Precipitation, MM = Missing Value Source: NWS Daily Summary

Daily Weather History Graph

Daily Weather History Graph

Search for Another Location

Airport or City:

Trip Planner

Search our weather history database for the weather conditions in past years. The results will help you decide how hot, cold, wet, or windy it might be!

Date:

Astronomy

Nov. 01, 2014 Rise Set
Actual Time 7:31 AM EDT 6:43 PM EDT
Civil Twilight 7:07 AM EDT 7:07 PM EDT
Nautical Twilight 6:40 AM EDT 7:34 PM EDT
Astronomical Twilight 6:13 AM EDT 8:01 PM EDT
Moon 3:03 PM EDT (11/1) 2:02 AM EDT (11/1)
Length of Visible Light 11h 59m
Length of Day
11h 12m
Waxing Gibbous, 67% of the Moon is Illuminated
Nov 1
Waxing Gibbous
Nov 6
Full
Nov 14
Last Quarter
Nov 22
New
Nov 29
First Quarter

Hourly Weather History & Observations

Time (EDT) Temp. Heat Index Dew Point Humidity Pressure Visibility Wind Dir Wind Speed Gust Speed Precip Events Conditions
12:53 AM 75.0 °F - 63.0 °F 66% 29.93 in 10.0 mi NNW 13.8 mph - N/A   Mostly Cloudy
1:53 AM 73.9 °F - 63.0 °F 68% 29.93 in 10.0 mi NW 13.8 mph 20.7 mph N/A   Mostly Cloudy
2:53 AM 73.9 °F - 61.0 °F 64% 29.93 in 10.0 mi NNW 13.8 mph 20.7 mph N/A   Partly Cloudy
3:53 AM 73.9 °F - 60.1 °F 62% 29.93 in 10.0 mi NW 12.7 mph 19.6 mph N/A   Scattered Clouds
4:53 AM 73.0 °F - 63.0 °F 71% 29.93 in 10.0 mi North 10.4 mph - N/A   Scattered Clouds
5:53 AM 72.0 °F - 63.0 °F 73% 29.95 in 10.0 mi North 9.2 mph - N/A   Scattered Clouds
6:53 AM 72.0 °F - 62.1 °F 71% 29.97 in 10.0 mi NNW 6.9 mph - N/A   Partly Cloudy
7:53 AM 73.0 °F - 59.0 °F 61% 30.00 in 10.0 mi WNW 12.7 mph 19.6 mph N/A   Mostly Cloudy
8:53 AM 75.9 °F - 54.0 °F 46% 30.01 in 10.0 mi WNW 13.8 mph 20.7 mph N/A   Clear
9:53 AM 78.1 °F - 57.0 °F 48% 30.01 in 10.0 mi West 9.2 mph - N/A   Clear
10:53 AM 79.0 °F - 59.0 °F 50% 30.03 in 10.0 mi West 15.0 mph 23.0 mph N/A   Clear
11:21 AM 80.1 °F 80.4 °F 57.0 °F 45% 30.02 in 2.5 mi WNW 15.0 mph 23.0 mph N/A   Haze
11:29 AM 79.0 °F - 57.9 °F 48% 30.02 in 10.0 mi West 13.8 mph 24.2 mph N/A   Partly Cloudy
11:53 AM 80.1 °F 80.4 °F 57.0 °F 45% 30.02 in 10.0 mi West 15.0 mph 21.9 mph N/A   Partly Cloudy
12:53 PM 77.0 °F - 64.9 °F 66% 30.01 in 10.0 mi NW 16.1 mph 27.6 mph N/A   Overcast
1:53 PM 77.0 °F - 64.0 °F 64% 30.00 in 10.0 mi NNW 16.1 mph 25.3 mph 0.00 in   Scattered Clouds
2:53 PM 77.0 °F - 64.9 °F 66% 29.99 in 10.0 mi NNW 18.4 mph 26.5 mph N/A   Partly Cloudy
3:53 PM 77.0 °F - 59.0 °F 54% 29.98 in 10.0 mi NW 15.0 mph 29.9 mph N/A   Clear
4:53 PM 75.0 °F - 61.0 °F 62% 30.00 in 10.0 mi WNW 12.7 mph 25.3 mph N/A   Partly Cloudy
5:53 PM 73.0 °F - 60.1 °F 64% 30.02 in 10.0 mi WNW 15.0 mph 28.8 mph N/A   Partly Cloudy
6:53 PM 71.1 °F - 59.0 °F 66% 30.04 in 10.0 mi NW 16.1 mph 26.5 mph N/A   Scattered Clouds
7:53 PM 68.0 °F - 55.9 °F 65% 30.07 in 10.0 mi NW 17.3 mph 26.5 mph N/A   Partly Cloudy
8:53 PM 68.0 °F - 55.9 °F 65% 30.10 in 10.0 mi NW 13.8 mph 26.5 mph N/A   Partly Cloudy
9:53 PM 68.0 °F - 54.0 °F 61% 30.11 in 10.0 mi NNW 18.4 mph 28.8 mph N/A   Scattered Clouds
10:53 PM 66.9 °F - 55.9 °F 68% 30.13 in 10.0 mi North 15.0 mph 25.3 mph N/A   Mostly Cloudy
11:53 PM 64.0 °F - 52.0 °F 65% 30.14 in 10.0 mi North 18.4 mph 26.5 mph N/A   Clear